Location: Caltech
(34.1382°N, 118.1253°W)
Time: 03:43:16
(UTC-07:00)

HO-68 - Visible Passes

Search period start: 20 August 2014 00:00
Search period end: 30 August 2014 00:00
Orbit: 1193 x 1204 km, 100.2° (Epoch: 19 August)

Date Brightness Start Highest point End Pass type
(mag) Time Alt. Az. Time Alt. Az. Time Alt. Az.
20 Aug ? 21:12:06 19° SSE 21:17:33 88° ENE 21:24:43 10° NNW visible
20 Aug ? 23:03:00 10° WSW 23:05:57 13° W 23:08:54 10° WNW visible
21 Aug ? 20:55:03 17° SSE 21:00:42 68° ENE 21:07:46 10° N visible
21 Aug ? 22:44:30 11° SW 22:48:50 19° W 22:53:33 10° NW visible
22 Aug ? 20:37:59 14° SE 20:43:53 51° ENE 20:50:44 10° N visible
22 Aug ? 22:27:27 15° SW 22:31:46 26° W 22:37:30 10° NW visible
23 Aug ? 20:20:56 11° SE 20:27:07 38° ENE 20:33:35 10° N visible
23 Aug ? 22:10:23 19° SSW 22:14:44 35° W 22:21:09 10° NW visible
24 Aug ? 20:04:29 10° ESE 20:10:24 29° ENE 20:16:19 10° N visible
24 Aug ? 21:53:20 22° SSW 21:57:45 47° W 22:04:36 10° NNW visible
25 Aug ? 19:48:34 10° ESE 19:53:44 22° ENE 19:58:53 10° NNE visible
25 Aug ? 21:36:17 24° S 21:40:49 63° WSW 21:47:54 10° NNW visible
26 Aug ? 21:19:14 24° SSE 21:23:54 83° WSW 21:31:05 10° NNW visible
26 Aug ? 23:10:53 10° WSW 23:12:25 11° W 23:13:57 10° WNW visible
27 Aug ? 21:02:11 22° SSE 21:07:02 76° ENE 21:14:10 10° N visible
27 Aug ? 22:51:38 11° SW 22:55:17 16° W 22:59:25 10° WNW visible
28 Aug ? 20:45:08 20° SE 20:50:13 57° ENE 20:57:10 10° N visible
28 Aug ? 22:34:36 16° SW 22:38:12 23° W 22:43:34 10° NW visible
29 Aug ? 20:28:05 16° SE 20:33:26 43° ENE 20:40:04 10° N visible
29 Aug ? 22:17:33 20° SW 22:21:09 31° W 22:27:19 10° NW visible
